www.pogodaiklimat.ru

Погода и климат >> Архив погоды >> Намибия >> Аэропорт Walvis Bay


ПОГОДА в Аэропорту Walvis Bay

  • Прогноз погоды в Аэропорту Walvis Bay
  • Монитор погоды в Аэропорту Walvis Bay

АРХИВ ПОГОДЫ в Аэропорту Walvis Bay

Время (UTC), дата Ветер
(напр.,м/с)
 
Видим.   Явления Облачность Т
(С)
Тd
(С)
f
(%)
Тe
(С)
Тes
(С)
Комфортность P
(гПа)
Po
(гПа)
Тmin
(С)
Tmax
(С)
R
(мм)
R24
(мм)
S
(см)
18 15.07 СЗ 3 >70 км ясно +18.2 +14.3 78 +19 +19 1017.0 1006.3 +18.2 +27.8
21 15.07 В 3 н/о н/о +15.8 +13.8 88 +15 +15 1018.3 1007.5 +15.6 +27.8
00 16.07 СЗ 1 н/о н/о +13.8 +12.2 90 +14 +14 1018.0 1007.1 +13.4 +27.8
03 16.07 штиль 0 100 м туман 10/10 100 м
[St]
+13.4 +12.6 95 +13 +13 1018.2 1007.3 +13.3 +27.8
06 16.07 Ю 2 100 м туман 10/10 100 м
[St]
+12.0 +11.2 95 +11 +11 1019.7 1008.7 +11.8
09 16.07 В 4 >70 км ясно +24.0 +14.2 54 +26 +32 жарко 1020.0 1009.4 +11.6 +24.0
12 16.07 З 4 >70 км ясно +30.1 +11.9 33 +31 +38 жарко 1017.7 1007.4 +11.6 +30.2
15 16.07 З 5 >70 км ясно +30.1 +10.4 30 +30 +31 жарко 1016.8 1006.5 +27.9 +31.3
18 16.07 З 1 >70 км ясно +19.3 +13.3 68 +22 +22 комфорт 1018.2 1007.5 +19.3 +31.3
21 16.07 СВ 3 н/о н/о +16.5 +12.5 77 +16 +16 1019.4 1008.6 +16.5 +31.3
00 17.07 СВ 1 н/о н/о +15.2 +11.6 79 +16 +16 1020.2 1009.3 +15.2 +31.3
03 17.07 ЮВ 5 30 км ясно +18.3 -2.4 24 +18 +18 1019.6 1008.8 +14.6 +31.3
06 17.07 ЮЗ 3 >70 км ясно +15.1 -2.2 30 +15 +15 1021.1 1010.2 +14.6
09 17.07 штиль 0 >70 км ясно +30.7 -2.7 11 +27 +38 жарко 1022.1 1011.8 +14.6 +30.7
12 17.07 З 7 20 км пыль ясно +32.8 +4.1 16 +30 +33 жарко 1019.7 1009.5 +14.6 +34.5
15 17.07 З 5 30 км ясно +32.1 +9.9 25 +31 +32 жарко 1018.4 1008.1 +32.1 +34.5
18 17.07 ЮВ 1 30 км ясно +22.2 +13.6 58 +25 +25 комфорт 1019.3 1008.7 +21.8 +34.5
21 17.07 ЮВ 7 н/о н/о +26.3 -4.0 13 +24 +24 комфорт 1019.6 1009.1 +21.1 +34.5
00 18.07 СВ 3 н/о н/о +17.0 +11.9 72 +17 +17 1020.4 1009.6 +16.9 +34.5
03 18.07 Ю 1 >70 км ясно +18.9 -1.9 24 +20 +20 1019.4 1008.7 +16.6 +34.5
06 18.07 С 3 >70 км ясно +15.5 -2.3 29 +15 +15 1020.1 1009.2 +15.5
09 18.07 В 6 >70 км ясно +33.3 -2.0 10 +30 +33 жарко 1020.6 1010.4 +15.3 +33.3
12 18.07 З 4 >70 км ясно +34.0 +5.0 16 +31 +39 жарко 1018.8 1008.6 +15.3 +35.9
15 18.07 ЮЗ 7 >70 км ясно +33.5 +4.6 16 +31 +31 жарко 1017.5 1007.3 +33.5 +35.9
18 18.07 ЮЗ 3 >70 км ясно +27.0 -1.5 15 +25 +25 комфорт 1018.1 1007.7 +25.1 +35.9
21 18.07 ЮВ 7 н/о н/о +26.3 -5.1 12 +24 +24 комфорт 1018.6 1008.1 +23.3 +35.9
00 19.07 СЗ 2 н/о н/о +16.2 +11.8 75 +17 +17 1019.3 1008.5 +16.2 +35.9
03 19.07 штиль 0 >70 км ясно +14.0 +10.6 80 +14 +14 1018.5 1007.6 +14.0 +35.9
06 19.07 СВ 2 >70 км ясно +12.9 +8.8 76 +12 +12 1019.0 1008.0 +12.3
09 19.07 штиль 0 >70 км ясно +23.7 +10.5 43 +25 +36 комфорт 1020.2 1009.6 +12.3 +24.5
12 19.07 З 3 >70 км ясно +30.3 +8.4 26 +30 +39 жарко 1018.0 1007.7 +12.3 +30.4
15 19.07 З 3 >70 км ясно +32.5 +8.4 23 +31 +33 жарко 1016.5 1006.3 +30.6 +33.1
18 19.07 З 1 >70 км ясно +23.5 +12.3 49 +25 +25 комфорт 1016.8 1006.3 +23.5 +33.1
21 19.07 СВ 3 н/о н/о +19.2 +11.8 62 +21 +21 комфорт 1018.2 1007.5 +18.7 +33.1
00 20.07 Ю 1 н/о н/о +16.1 +11.1 72 +17 +17 1018.3 1007.5 +15.7 +33.1
03 20.07 В 3 >70 км ясно +14.2 +6.3 59 +14 +14 1017.6 1006.7 +13.8 +33.1
06 20.07 В 2 >70 км ясно +13.9 +3.1 48 +14 +14 1018.3 1007.4 +12.8
09 20.07 З 2 >70 км ясно +22.4 +10.7 47 +24 +33 комфорт 1019.4 1008.8 +12.8 +22.4
12 20.07 З 4 >70 км ясно +30.5 +9.1 26 +30 +38 жарко 1016.9 1006.6 +12.8 +30.5
15 20.07 З 4 >70 км ясно +32.5 +1.9 14 +29 +31 жарко 1015.6 1005.4 +30.5 +32.7
18 20.07 ЮВ 1 >70 км ясно +24.6 +10.3 40 +26 +26 жарко 1015.9 1005.4 +24.2 +32.7
21 20.07 В 2 н/о н/о +21.6 -1.4 21 +21 +21 комфорт 1017.1 1006.5 +21.0 +32.7
00 21.07 ЮВ 3 н/о н/о +19.6 -3.1 21 +20 +20 1017.2 1006.5 +18.6 +32.7
03 21.07 СВ 5 4000 м дымка 10/10 200 м
[St]
+15.5 +13.7 89 +14 +14 1018.3 1007.4 +15.4 +32.7
06 21.07 С 3 4000 м дымка 5/5 100 м
[St]
+13.1 +12.0 93 +12 +12 1019.0 1008.0 +12.9
09 21.07 штиль 0 30 км {туман} 8/8 100 м
[Sc]
+17.4 +16.1 92 +17 +20 1020.3 1009.5 +12.5 +17.4
12 21.07 СЗ 4 >70 км ясно +20.3 +14.9 71 +23 +30 комфорт 1018.4 1007.7 +12.5 +21.6
15 21.07 СЗ 3 >70 км ясно +20.1 +15.1 73 +23 +24 комфорт 1017.8 1007.1 +19.9 +21.6
18 21.07 СЗ 4 >70 км ясно +17.2 +15.0 87 +17 +17 1019.1 1008.3 +17.2 +21.6
21 21.07 С 1 н/о н/о +16.0 +15.0 94 +17 +17 1020.7 1009.8 +15.8 +21.6
00 22.07 СВ 4 н/о н/о +16.1 +14.9 93 +15 +15 1019.4 1008.6 +15.3 +21.6
03 22.07 С 2 500 м туман 10/10 100 м
[St]
+15.8 +15.0 95 +16 +16 1019.1 1008.2 +15.3 +21.6
06 22.07 штиль 0 500 м туман 10/10 100 м
[St]
+15.7 +14.9 95 +15 +15 1020.3 1009.4 +15.3
09 22.07 СЗ 2 30 км 10/10 100 м
[St]
+16.2 +15.4 95 +16 +16 1021.5 1010.6 +15.3 +16.3
12 22.07 СЗ 3 >70 км 10/10 300 м
[Sc]
+17.9 +14.8 82 +18 +18 1019.5 1008.7 +15.3 +18.5
15 22.07 З 3 >70 км 4/4 600 м
[Sc]
+19.5 +14.8 74 +21 +22 комфорт 1017.5 1006.8 +18.5 +20.0

 

Местоположение метеостанции Аэропорт Walvis Bay (Намибия): широта -22.98 долгота 14.65 высота над уровнем моря 88 м.

В архиве по умолчанию представлена погода в Аэропорту Walvis Bay за последнюю неделю. Архивные данные за месяц целиком и за предыдущие месяцы, начиная с января 2011 года, Вы можете получить, выбрав интересующий диапазон дат из раскрывающегося списка и нажав кнопку "Ввод!".


*Определитесь, кто Вы:
робот инопланетянин человек

Внимание! Время в таблицах - всемирное. Для получения местного времени необходимо прибавить поправку, которая равна 2 ч.

Смотрите также архив погоды в соседних городах и на ближайших метеорологических станциях:

Погода в Виндхуке (Намибия) (256 км)
Погода в Виндхук аэропорту (Намибия) (295 км)
Погода в Очиваронго (Намибия) (348 км)
Погода в Аэропорту Eros (Намибия) (356 км)
Погода в Людерице (Намибия) (409 км)
Погода в Окаукуечо (Намибия) (432 км)
Погода в Гобабисе (Намибия) (447 км)
Погода в Хрутфонтейне (Намибия) (520 км)
Погода в Китмансхупе (Намибия) (528 км)
Погода в Ондангва аэропорту (Намибия) (579 км)

Пояснения к столбцам:

Ветер - указаны скорость ветра в м/с - средняя за 10 мин, порывы в срок и между сроками (в фигурных скобках) и направление, откуда дует ветер: С - северный, СВ - северо-восточный, В - восточный, ЮВ - юго-восточный, Ю - южный, ЮЗ - юго-западный, З - западный, СЗ - северо-западный.
Видимость - горизонтальная дальность видимости в метрах или километрах. При видимости от 1 до 10 км при отсутствии осадков обычно наблюдается дымка, при ухудшении видимости до 1 км и менее - туман. В сухую погоду видимость может ухудшаться дымом, пылью или мглою.
Явления - указаны атмосферные явления, наблюдавшиеся в срок или в последний час перед сроком; фигурными скобками обозначены явления, наблюдавшиеся между сроками (за 1-3 часа до срока); квадратными скобками обозначены град или гололедные отложения с указанием их диаметра в мм.
Облачность - указаны через наклонную черту общая и нижняя облачность в баллах и высота нижней границы облаков в метрах; квадратными скобками обозначены формы облаков: Ci - перистые, Cs - перисто-слоистые, Cc - перисто-кучевые, Ac - высококучевые, As - высокослоистые, Sc - слоисто-кучевые, Ns - слоисто-дождевые, Cu - кучевые, Cb - кучево-дождевые. Подробнее классификацию облаков см. в Атласе облаков (PDF).
T - Температура воздуха - температура, измеренная на высоте 2 м над землей.
Td - Температура точки росы - температура, при понижении до которой содержащийся в воздухе водяной пар достигнет насыщения.
f - Относительная влажность воздуха - влажноcть воздуха, измеренная на высоте 2 м над землей.
Te - Эффективная температура - температура, которую ощущает одетый по сезону человек в тени. Характеристика душности погоды. При расчете учитывается влияние влажности воздуха и скорости ветра на теплоощущения человека.
Tes - Эффективная температура на солнце - температура, которую ощущает человек, с поправкой на солнечный нагрев. Характеристика знойности погоды. Зависит от высоты солнца над горизонтом, облачности и скорости ветра. Ночью, в пасмурную погоду, а также при ветре 12 м/с и более поправка равна нулю.
P - Атмосферное давление - приведенное к уровню моря атмосферное давление.
Po - Атмосферное давление - измеренное на уровне метеостанции атмосферное давление.
Tmin - Минимальная температура - минимум температуры воздуха на высоте 2 м над землей.
Tmax - Максимальная температура - максимум температуры воздуха на высоте 2 м над землей.
R - Количество осадков - Количество выпавших осадков за период времени, мм. При наведении курсора мыши на число - период времени, за который выпало указанное количество осадков.
R24 - Количество осадков - Количество выпавших осадков за 24 часа, мм.
S - Снежный покров - Высота снежного покрова, см. При наведении курсора мыши на число - состояние снежного покрова и степень покрытия местности в баллах.